#datint,netname,site,siteID,timestamp,IntT,BattV,AirT2,AirT,AirT_Avg,AirT_Max,AirT_Min,RH_Avg,RH_Max,RH_Min,EA_Avg,Td_Avg,Td_Max,Td_Min,WindS_Smp,WindS_Avg,WindD_Avg,WindD_SD,WindS_Max,ETo,ETr,SoilT4,SoilT8,SoilVWC8,SolarW_Avg,wetstate_Avg,wetT_Avg,Precip_accum,Precip_WPG,Precip_TB
15min,AgWx,beryljct,423,21SEP2020:00:00:00,55.2,12.9,54.9,55.6,55.5,56.8,53.7,48,54,44,0.717,35.9,37.8,34.9,0.745,1.8,281,12,2.7,-0.00009,-0.00009,62.2,63.6,10,0,.,.,4.29,0.01,0.00
15min,AgWx,beryljct,423,21SEP2020:00:15:00,54.6,12.88,54.7,54.4,53.6,55.7,51.4,55,63,47,0.738,37.5,39.3,34.9,2.521,1.2,300,29,2.8,-0.00018,-0.00025,62.0,63.6,10,0,.,.,4.29,0.00,0.00
15min,AgWx,beryljct,423,21SEP2020:00:30:00,54.3,12.87,55.2,52.8,54.4,57.4,51.6,49,56,41,0.629,35.3,37.3,32.7,2.105,1.8,234,24,3.2,-0.00010,-0.00011,61.8,63.6,10,0,.,.,4.29,0.00,0.00
15min,AgWx,beryljct,423,21SEP2020:00:45:00,53.8,12.88,54.3,54.4,53.4,57.6,49.9,51,66,37,0.666,35.5,39.2,31.7,2.653,2.3,234,43,4.2,-0.00005,-0.00003,61.5,63.6,10,0,.,.,4.29,0.00,0.00
15min,AgWx,beryljct,423,21SEP2020:01:00:00,53.4,12.87,50.6,50.1,52.0,54.3,49.8,51,57,46,0.627,34.5,36.4,32.7,3.201,2.5,185,11,3.2,-0.00003,-0.00000,61.3,63.5,10,0,.,.,4.29,0.00,0.00
15min,AgWx,beryljct,423,21SEP2020:01:15:00,52.8,12.84,50.4,50.4,50.8,51.9,49.5,46,54,41,0.543,30.7,33.9,28.4,3.069,2.7,177,16,3.9,0.00001,0.00006,61.1,63.5,10,0,.,.,4.29,0.00,0.00
15min,AgWx,beryljct,423,21SEP2020:01:30:00,52.3,12.85,49.0,48.7,50.4,51.5,48.4,47,55,43,0.625,30.9,33.3,29.3,2.17,2.7,181,2.8,3.5,0.00001,0.00005,60.9,63.5,11,0,.,.,4.30,0.00,0.00
15min,AgWx,beryljct,423,21SEP2020:01:45:00,51.8,12.84,48.2,49.6,49.8,51.9,48.3,51,60,44,0.724,32.3,36.3,29.7,2.74,2.8,194,9.2,3.6,0.00000,0.00003,60.8,63.4,10,0,.,.,4.30,0.00,0.00
15min,AgWx,beryljct,423,21SEP2020:02:00:00,51.3,12.84,45.1,45.4,47.8,50.3,45.3,65,77,55,0.791,36.5,38.5,34.8,2.324,1.1,158,58,3.4,-0.00019,-0.00026,60.6,63.4,10,0,.,.,4.30,0.00,0.00
15min,AgWx,beryljct,423,21SEP2020:02:15:00,50.4,12.83,45.4,45.0,44.9,45.3,44.0,68,79,61,0.653,34.8,38.8,32.5,0.46,2.3,180,23,4.3,-0.00009,-0.00010,60.4,63.3,10,0,.,.,4.30,0.00,0.00
15min,AgWx,beryljct,423,21SEP2020:02:30:00,49.6,12.8,45.3,46.4,46.4,47.6,45.0,61,64,56,0.646,33.7,35.2,31.1,3.595,1.5,196,25,3.6,-0.00015,-0.00019,60.2,63.3,10,0,.,.,4.30,0.00,0.00
15min,AgWx,beryljct,423,21SEP2020:02:45:00,49.0,12.82,44.4,43.5,44.8,46.3,43.3,63,71,54,0.681,32.9,34.7,30.3,1.206,2.9,152,26,6.7,-0.00004,-0.00002,60.0,63.3,10,0,.,.,4.30,0.00,0.00
15min,AgWx,beryljct,423,21SEP2020:03:00:00,48.3,12.81,44.7,44.8,45.3,46.6,43.5,65,75,58,0.752,34.0,37.2,32.4,0,0.7,80,56,3.1,-0.00023,-0.00033,59.9,63.2,10,0,.,.,4.30,0.00,0.00
15min,AgWx,beryljct,423,21SEP2020:03:15:00,47.8,12.8,46.0,45.2,44.9,45.7,44.2,67,78,60,0.616,34.5,38.1,32.2,1.929,2.9,325,14,3.8,-0.00006,-0.00005,59.7,63.2,10,0,.,.,4.30,0.00,0.00
15min,AgWx,beryljct,423,21SEP2020:03:30:00,47.3,12.79,43.9,43.2,43.1,45.3,41.8,67,74,60,0.617,32.8,34.3,31.4,1.71,1.7,12,14,3.8,-0.00013,-0.00017,59.5,63.1,10,0,.,.,4.30,0.00,0.00
15min,AgWx,beryljct,423,21SEP2020:03:45:00,46.8,12.77,42.9,42.4,43.5,44.4,42.2,65,72,60,0.655,32.2,33.8,30.9,0,2.1,42,21,3.1,-0.00010,-0.00011,59.3,63.0,10,0,.,.,4.30,0.00,0.00
15min,AgWx,beryljct,423,21SEP2020:04:00:00,46.2,12.78,44.7,43.5,42.4,43.5,41.9,73,77,69,0.662,34.4,35.4,33.7,2.565,1.4,278,63,2.6,-0.00017,-0.00022,59.2,63.0,10,0,.,.,4.30,0.00,0.00
15min,AgWx,beryljct,423,21SEP2020:04:15:00,45.8,12.76,44.4,43.7,43.7,44.2,43.2,63,73,54,0.526,32.0,35.5,28.2,4.034,3.2,319,21,4.5,-0.00003,-0.00001,59.0,62.9,10,0,.,.,4.30,0.00,0.00
15min,AgWx,beryljct,423,21SEP2020:04:30:00,45.7,12.75,43.3,44.0,44.3,45.5,43.6,61,66,55,0.644,31.8,33.6,28.4,2.981,2.2,312,23,4.4,-0.00008,-0.00009,58.8,62.8,10,0,.,.,4.30,0.00,0.00
15min,AgWx,beryljct,423,21SEP2020:04:45:00,45.7,12.75,44.7,44.2,44.2,45.4,43.2,57,66,51,0.534,29.7,33.5,27.0,4.954,5.1,350,10,6.5,0.00010,0.00016,58.6,62.8,10,0,.,.,4.30,0.00,0.00
15min,AgWx,beryljct,423,21SEP2020:05:00:00,46.0,12.73,46.7,46.0,45.5,46.3,44.2,53,54,51,0.551,29.2,30.4,28.3,4.626,5.8,339,8.8,6.8,0.00017,0.00023,58.5,62.7,10,0,.,.,4.30,0.00,0.00
15min,AgWx,beryljct,423,21SEP2020:05:15:00,46.4,12.73,45.6,46.4,46.6,46.9,46.1,54,58,52,0.609,30.7,32.2,29.4,3.201,4.9,318,5.0,5.9,0.00013,0.00019,58.3,62.6,10,0,.,.,4.30,0.00,0.00
15min,AgWx,beryljct,423,21SEP2020:05:30:00,46.6,12.72,46.8,46.9,46.8,47.3,46.0,54,58,53,0.585,31.1,32.0,30.7,4.45,4.9,297,6.0,6.6,0.00012,0.00018,58.1,62.6,10,0,.,.,4.29,0.00,0.00
15min,AgWx,beryljct,423,21SEP2020:05:45:00,46.6,12.72,48.1,47.3,46.3,47.3,44.6,57,63,53,0.584,31.7,33.0,30.9,0.789,1.4,242,26,4.9,-0.00014,-0.00018,58.0,62.5,10,0,.,.,4.29,0.00,0.00
15min,AgWx,beryljct,423,21SEP2020:06:00:00,46.5,12.71,48.7,49.2,48.7,50.4,46.7,48,55,44,0.573,30.0,31.6,29.0,3.836,1.9,204,17,3.9,-0.00008,-0.00009,57.9,62.5,10,0,.,.,4.30,0.00,0.00
15min,AgWx,beryljct,423,21SEP2020:06:15:00,46.2,12.7,42.6,42.6,43.9,49.0,42.5,60,64,48,0.586,30.9,32.4,30.1,4.56,4.2,168,9.0,5.4,0.00005,0.00009,57.7,62.4,10,0,.,.,4.29,0.00,0.00
15min,AgWx,beryljct,423,21SEP2020:06:30:00,45.5,12.69,41.5,41.3,41.9,42.7,41.0,66,71,63,0.568,31.4,32.3,30.2,3.836,4.0,167,11,5.0,0.00000,0.00003,57.6,62.3,10,0,.,.,4.29,0.00,0.00
15min,AgWx,beryljct,423,21SEP2020:06:45:00,44.9,12.68,43.1,43.6,42.4,44.0,40.7,60,65,56,0.566,29.6,30.3,29.2,4.889,5.7,183,4.0,7.3,0.00042,0.00073,57.4,62.2,10,0,.,.,4.29,0.00,0.00
15min,AgWx,beryljct,423,21SEP2020:07:00:00,44.8,12.69,44.5,44.3,44.4,45.0,43.3,58,61,55,0.602,30.5,31.7,30.0,4.954,5.2,181,5.5,6.2,0.00043,0.00075,57.3,62.2,10,0,.,.,4.29,0.00,0.00
15min,AgWx,beryljct,423,21SEP2020:07:15:00,45.0,12.67,45.3,45.0,45.0,45.7,44.2,58,61,55,0.609,31.2,31.9,30.5,4.341,4.8,182,4.5,5.8,0.00041,0.00071,57.2,62.1,10,1,.,.,4.29,0.00,0.00
15min,AgWx,beryljct,423,21SEP2020:07:30:00,44.9,12.69,41.8,41.5,43.1,45.3,41.3,63,66,59,0.560,31.3,33.1,29.6,1.6,2.9,295,48,4.3,0.00025,0.00043,57.0,62.0,10,5,.,.,4.29,0.00,0.00
15min,AgWx,beryljct,423,21SEP2020:07:45:00,44.5,12.71,43.8,43.5,42.7,43.7,41.5,57,63,52,0.518,28.7,29.9,27.4,1.513,1.8,355,14,2.8,0.00029,0.00042,56.9,62.0,10,24,.,.,4.29,0.00,0.00
15min,AgWx,beryljct,423,21SEP2020:08:00:00,44.5,12.76,43.0,42.5,42.8,43.9,41.6,60,74,53,0.545,29.8,33.9,27.8,0,0.6,5.2,3.8,2.4,0.00036,0.00042,56.8,61.9,10,56,.,.,4.29,0.00,0.00
15min,AgWx,beryljct,423,21SEP2020:08:15:00,45.0,12.82,44.1,44.0,43.6,44.4,42.6,65,70,60,0.670,32.7,34.6,29.8,0.636,0.1,2.3,0.3,0.9,0.00049,0.00053,56.7,61.8,10,97,.,.,4.29,0.00,0.00
15min,AgWx,beryljct,423,21SEP2020:08:30:00,46.3,12.94,46.5,46.2,45.4,46.2,44.0,63,69,58,0.706,33.4,36.2,31.2,0.723,0.1,2.9,0.0,0.8,0.00068,0.00074,56.6,61.8,10,141,.,.,4.29,0.00,0.00
15min,AgWx,beryljct,423,21SEP2020:08:45:00,48.4,13.18,50.8,50.2,48.2,50.2,46.1,66,70,54,0.672,37.2,39.0,34.4,0.11,0.2,2.8,0.1,1.2,0.00093,0.00101,56.5,61.7,10,187,.,.,4.29,0.00,0.00
15min,AgWx,beryljct,423,21SEP2020:09:00:00,51.3,13.53,52.7,53.2,51.8,53.9,50.2,55,59,50,0.757,35.9,38.5,33.5,0,0.1,6.0,1.8,0.7,0.00122,0.00131,56.4,61.6,10,236,.,.,4.28,0.00,0.00
15min,AgWx,beryljct,423,21SEP2020:09:15:00,54.6,14.14,54.2,54.1,53.3,54.1,52.5,58,63,55,0.834,38.8,41.4,36.9,0,0.0,9.9,0.0,0.4,0.00150,0.00160,56.3,61.5,10,286,.,.,4.28,0.00,0.00
15min,AgWx,beryljct,423,21SEP2020:09:30:00,57.7,14.33,57.2,57.0,55.4,57.1,54.1,59,64,54,0.910,41.4,44.4,38.6,1.381,0.8,94,46,1.7,0.00187,0.00205,56.3,61.5,10,337,.,.,4.28,0.00,0.00
15min,AgWx,beryljct,423,21SEP2020:09:45:00,60.7,14.27,61.0,61.0,59.1,61.0,57.0,52,60,41,0.827,41.3,44.3,36.8,1.535,1.1,74,27,2.2,0.00226,0.00251,56.2,61.4,10,387,.,.,4.28,0.00,0.00
15min,AgWx,beryljct,423,21SEP2020:10:00:00,63.8,14.19,64.1,63.8,62.5,63.9,61.0,39,49,32,0.646,37.0,42.3,33.1,1.666,1.3,24,49,3.4,0.00262,0.00295,56.2,61.3,10,425,.,.,4.27,0.00,0.00
15min,AgWx,beryljct,423,21SEP2020:10:15:00,66.9,14.13,65.6,65.6,64.6,65.6,63.8,31,34,30,0.649,33.5,35.9,32.1,3.793,2.8,347,11,5.0,0.00323,0.00382,56.2,61.3,10,489,.,.,4.27,0.00,0.00
15min,AgWx,beryljct,423,21SEP2020:10:30:00,69.8,14.19,66.3,66.4,66.2,66.7,65.5,33,44,29,0.790,36.3,43.6,32.4,3.42,2.7,17,25,4.4,0.00380,0.00442,56.3,61.2,10,585,.,.,4.26,0.00,0.00
15min,AgWx,beryljct,423,21SEP2020:10:45:00,72.4,14.05,67.7,67.9,67.2,67.9,66.4,37,49,31,0.751,40.2,48.2,35.7,2.126,2.7,40,16,4.1,0.00389,0.00450,56.5,61.1,10,590,.,.,4.26,0.00,0.00
15min,AgWx,beryljct,423,21SEP2020:11:00:00,74.4,14.01,68.9,68.9,68.4,68.9,67.8,38,48,30,0.745,41.9,48.5,36.0,2.85,2.6,72,27,4.2,0.00404,0.00465,56.6,61.1,10,606,.,.,4.26,0.00,0.00
15min,AgWx,beryljct,423,21SEP2020:11:15:00,75.8,13.99,69.5,69.5,69.1,69.5,68.7,42,51,30,1.146,45.0,50.8,36.3,2.674,2.3,100,19,3.4,0.00423,0.00480,56.8,61.0,10,640,.,.,4.26,0.00,0.00
15min,AgWx,beryljct,423,21SEP2020:11:30:00,76.8,13.66,70.2,70.2,70.0,70.2,69.5,44,52,37,1.056,47.0,51.7,42.1,4.867,3.4,120,7.8,5.4,0.00454,0.00523,57.0,60.9,10,672,.,.,4.25,0.00,0.00
15min,AgWx,beryljct,423,21SEP2020:11:45:00,77.2,13.59,71.1,71.0,70.6,71.1,70.2,45,52,40,1.133,48.2,52.0,44.8,4.757,4.4,112,6.8,5.5,0.00481,0.00564,57.3,60.9,10,703,.,.,4.25,0.00,0.00
15min,AgWx,beryljct,423,21SEP2020:12:00:00,77.5,13.67,72.7,72.7,71.8,72.7,71.1,44,54,36,1.158,48.8,53.9,44.4,3.179,4.1,89,10,5.3,0.00503,0.00585,57.7,60.9,10,730,.,.,4.25,0.00,0.00
15min,AgWx,beryljct,423,21SEP2020:12:15:00,78.3,13.55,74.0,74.3,73.3,74.3,72.8,43,50,36,1.245,49.6,54.3,44.2,5.437,4.9,73,9.0,7.7,0.00530,0.00625,58.1,60.8,10,753,.,.,4.25,0.00,0.00
15min,AgWx,beryljct,423,21SEP2020:12:30:00,79.3,13.51,77.6,77.5,76.0,77.5,74.3,40,49,30,1.042,49.6,54.7,43.4,8.7,7.7,118,28,11.9,0.00581,0.00715,58.5,60.8,10,773,.,.,4.25,0.00,0.00
15min,AgWx,beryljct,423,21SEP2020:12:45:00,80.8,13.54,79.6,79.6,79.5,80.9,77.6,29,34,23,0.971,43.9,48.2,38.8,8.94,8.9,210,28,16.3,0.00648,0.00827,59.0,60.8,10,795,.,.,4.25,0.00,0.00
15min,AgWx,beryljct,423,21SEP2020:13:00:00,82.0,13.48,79.1,80.2,80.4,81.5,78.8,27,33,20,0.929,42.7,47.1,36.9,9.69,9.4,214,22,15.3,0.00670,0.00862,59.5,60.8,10,808,.,.,4.25,0.00,0.00
15min,AgWx,beryljct,423,21SEP2020:13:15:00,82.6,13.5,79.5,79.6,79.9,81.0,78.6,27,34,22,0.874,42.8,49.1,38.8,11.55,11.5,221,15,17.6,0.00683,0.00899,60.1,60.8,10,800,.,.,4.25,0.00,0.00
15min,AgWx,beryljct,423,21SEP2020:13:30:00,82.3,13.49,79.9,80.5,79.5,80.9,78.3,26,34,22,0.871,41.2,48.8,37.9,21.46,12.7,220,11,21.5,0.00623,0.00851,60.6,60.8,10,658,.,.,4.25,0.00,0.00
15min,AgWx,beryljct,423,21SEP2020:13:45:00,82.2,13.47,80.5,81.2,79.8,81.2,78.4,26,29,23,0.863,41.5,44.3,38.7,17.67,12.9,227,13,21.2,0.00675,0.00911,61.2,60.8,10,753,.,.,4.25,0.00,0.00
15min,AgWx,beryljct,423,21SEP2020:14:00:00,82.8,13.49,81.3,81.1,80.9,81.7,79.8,24,28,20,0.800,40.5,43.8,36.7,15.59,13.1,208,15,21.2,0.00727,0.00976,61.7,60.9,10,816,.,.,4.26,0.00,0.00
15min,AgWx,beryljct,423,21SEP2020:14:15:00,83.5,13.45,79.8,80.8,81.1,81.7,80.8,23,26,19,0.839,39.8,43.1,35.3,17.3,13.1,209,15,18.6,0.00727,0.00978,62.2,60.9,10,811,.,.,4.25,0.00,0.00
15min,AgWx,beryljct,423,21SEP2020:14:30:00,83.8,13.45,80.2,80.3,80.4,80.9,79.9,24,27,21,0.834,40.7,43.4,37.3,12.98,13.7,224,14,20.3,0.00713,0.00965,62.7,61.0,10,793,.,.,4.25,0.00,0.00
15min,AgWx,beryljct,423,21SEP2020:14:45:00,84.1,13.45,81.0,81.4,80.8,82.0,79.6,25,28,21,0.873,41.2,44.1,37.4,14.49,11.1,216,24,17.4,0.00673,0.00891,63.3,61.0,10,774,.,.,4.25,0.00,0.00
15min,AgWx,beryljct,423,21SEP2020:15:00:00,84.7,13.41,80.5,81.2,81.4,82.1,80.7,24,28,20,0.852,40.7,44.5,37.0,17.49,12.6,200,15,20.4,0.00677,0.00918,63.7,61.1,10,733,.,.,4.26,0.00,0.00
15min,AgWx,beryljct,423,21SEP2020:15:15:00,84.9,13.43,81.4,80.9,81.2,82.2,80.5,24,27,21,0.878,40.5,44.3,37.8,13.11,12.8,198,18,19.4,0.00657,0.00900,64.3,61.2,10,712,.,.,4.26,0.00,0.00
15min,AgWx,beryljct,423,21SEP2020:15:30:00,85.1,13.39,80.6,80.5,81.1,82.4,80.1,24,29,20,0.835,40.8,44.7,37.6,10.26,12.1,211,19,20.9,0.00657,0.00890,64.7,61.3,10,719,.,.,4.26,0.00,0.00
15min,AgWx,beryljct,423,21SEP2020:15:45:00,85.2,13.37,80.9,81.1,81.0,81.6,80.5,26,30,22,0.943,42.4,47.1,38.7,11.33,10.9,204,17,17.6,0.00596,0.00806,65.1,61.4,10,656,.,.,4.26,0.00,0.00
15min,AgWx,beryljct,423,21SEP2020:16:00:00,85.5,13.44,81.5,81.6,81.3,82.4,80.2,25,30,21,0.903,42.3,46.0,38.5,10.22,10.9,208,19,17.6,0.00598,0.00810,65.6,61.5,10,658,.,.,4.26,0.00,0.00
15min,AgWx,beryljct,423,21SEP2020:16:15:00,85.1,13.4,81.6,81.2,80.6,81.6,78.9,24,28,21,0.891,40.6,42.9,37.7,16.22,10.4,200,19,18.3,0.00485,0.00683,66.0,61.6,10,499,.,.,4.26,0.00,0.00
15min,AgWx,beryljct,423,21SEP2020:16:30:00,84.8,13.48,80.4,80.0,80.2,81.4,79.0,26,32,21,0.861,42.3,47.2,37.5,7.147,11.7,211,15,21.7,0.00537,0.00752,66.3,61.7,10,558,.,.,4.26,0.00,0.00
15min,AgWx,beryljct,423,21SEP2020:16:45:00,84.6,13.46,79.8,79.5,80.3,80.9,79.2,26,30,22,0.930,41.8,45.1,38.7,12.12,9.6,210,15,16.1,0.00481,0.00666,66.5,61.8,10,517,.,.,4.26,0.00,0.00
15min,AgWx,beryljct,423,21SEP2020:17:00:00,84.4,13.4,80.5,80.8,80.4,81.2,79.5,24,29,20,0.800,39.8,44.6,36.7,13.18,12.2,196,20,17.5,0.00494,0.00717,66.8,61.9,10,469,.,.,4.26,0.00,0.00
15min,AgWx,beryljct,423,21SEP2020:17:15:00,84.2,13.4,79.8,79.5,80.3,81.1,79.5,23,26,21,0.880,39.5,41.7,37.6,10.17,11.8,201,16,19.8,0.00459,0.00677,66.9,62.0,10,421,.,.,4.26,0.00,0.00
15min,AgWx,beryljct,423,21SEP2020:17:30:00,83.7,13.43,79.1,80.0,79.9,80.3,79.2,24,27,20,0.755,39.5,42.0,35.9,11.22,11.5,208,11,18.2,0.00420,0.00628,67.1,62.2,10,373,.,.,4.26,0.00,0.00
15min,AgWx,beryljct,423,21SEP2020:17:45:00,83.2,13.4,80.3,79.8,79.6,80.1,78.8,24,28,21,0.799,39.2,42.7,36.8,8.2,9.8,205,12,16.6,0.00359,0.00542,67.2,62.3,10,323,.,.,4.26,0.00,0.00
15min,AgWx,beryljct,423,21SEP2020:18:00:00,82.8,13.46,79.9,79.8,80.0,80.4,79.5,22,24,21,0.747,38.1,40.3,36.4,13.42,12.5,189,11,17.3,0.00375,0.00596,67.2,62.4,10,272,.,.,4.26,0.00,0.00
15min,AgWx,beryljct,423,21SEP2020:18:15:00,82.2,13.48,79.0,79.0,79.5,80.0,78.8,23,25,20,0.786,38.0,40.3,35.8,11.16,11.5,199,9.9,19.3,0.00326,0.00532,67.2,62.6,10,222,.,.,4.26,0.00,0.00
15min,AgWx,beryljct,423,21SEP2020:18:30:00,81.4,13.48,78.8,78.9,78.6,79.1,78.1,24,26,23,0.801,39.3,40.7,38.0,11.57,11.5,210,10,15.9,0.00287,0.00483,67.2,62.7,10,174,.,.,4.26,0.00,0.00
15min,AgWx,beryljct,423,21SEP2020:18:45:00,80.5,13.41,77.3,78.7,78.4,78.9,77.6,24,26,22,0.772,38.7,40.6,36.4,9.25,10.6,200,11,18.2,0.00154,0.00200,67.1,62.8,10,129,.,.,4.26,0.00,0.00
15min,AgWx,beryljct,423,21SEP2020:19:00:00,79.6,13.22,77.4,77.4,77.8,78.9,76.4,24,27,22,0.796,38.4,40.5,36.8,9.51,9.7,200,11,15.0,0.00135,0.00178,67.0,62.9,10,84,.,.,4.26,0.00,0.00
15min,AgWx,beryljct,423,21SEP2020:19:15:00,78.6,13.1,76.3,76.4,77.3,78.0,76.3,25,26,23,0.809,38.4,39.3,37.5,7.037,8.9,199,6.6,13.3,0.00117,0.00157,66.9,63.0,10,45,.,.,4.26,0.00,0.00
15min,AgWx,beryljct,423,21SEP2020:19:30:00,77.1,13.05,74.1,74.9,75.3,76.3,74.7,27,28,26,0.800,38.8,39.8,38.3,5.941,6.7,197,11,9.9,0.00080,0.00113,66.8,63.1,10,14,.,.,4.26,0.00,0.00
15min,AgWx,beryljct,423,21SEP2020:19:45:00,75.3,13.03,71.5,71.3,72.6,74.8,71.2,30,32,27,0.798,39.5,40.3,38.6,5.239,5.3,218,5.3,7.2,0.00053,0.00079,66.6,63.3,10,4,.,.,4.27,0.00,0.00
15min,AgWx,beryljct,423,21SEP2020:20:00:00,73.6,13.01,72.2,72.4,72.2,73.1,71.3,29,30,27,0.792,37.9,38.6,37.3,5.897,5.8,213,6.3,7.3,0.00059,0.00086,66.5,63.4,10,0,.,.,4.27,0.00,0.00
15min,AgWx,beryljct,423,21SEP2020:20:15:00,72.5,13,71.4,72.0,72.2,72.8,71.7,29,30,28,0.799,38.3,38.9,37.7,4.932,5.6,208,6.4,7.2,0.00056,0.00083,66.3,63.4,10,0,.,.,4.27,0.00,0.00
15min,AgWx,beryljct,423,21SEP2020:20:30:00,71.7,12.98,70.9,70.1,71.0,72.0,69.2,31,35,28,0.859,39.0,40.6,37.2,8,5.9,172,14,8.5,0.00056,0.00081,66.1,63.5,10,0,.,.,4.27,0.00,0.00
15min,AgWx,beryljct,423,21SEP2020:20:45:00,70.9,12.99,70.0,70.6,70.8,71.1,70.2,35,36,34,0.911,41.9,42.5,40.7,6.292,6.7,169,8.8,8.9,0.00061,0.00085,65.9,63.6,10,0,.,.,4.27,0.00,0.00
15min,AgWx,beryljct,423,21SEP2020:21:00:00,70.1,12.97,68.0,68.4,69.1,70.6,68.4,38,40,36,0.947,42.6,43.1,42.1,5.963,5.9,183,6.0,7.1,0.00048,0.00069,65.7,63.7,10,0,.,.,4.27,0.00,0.00
15min,AgWx,beryljct,423,21SEP2020:21:15:00,69.2,12.97,66.2,66.7,67.5,68.4,66.7,41,43,40,0.954,43.2,43.4,43.0,4.538,5.0,191,3.9,6.3,0.00034,0.00051,65.5,63.8,10,0,.,.,4.27,0.00,0.00
15min,AgWx,beryljct,423,21SEP2020:21:30:00,68.1,12.97,65.4,65.7,66.3,66.7,65.7,43,45,42,0.961,43.3,43.7,43.1,4.319,4.7,189,3.8,5.8,0.00028,0.00043,65.3,63.8,10,0,.,.,4.27,0.00,0.00
15min,AgWx,beryljct,423,21SEP2020:21:45:00,67.3,12.96,66.4,65.4,65.8,66.5,65.2,44,46,43,0.960,43.6,44.1,43.2,4.121,4.3,202,4.3,5.0,0.00023,0.00036,65.1,63.8,10,0,.,.,4.28,0.01,0.00
15min,AgWx,beryljct,423,21SEP2020:22:00:00,66.7,12.95,65.8,66.3,66.3,67.0,65.4,44,45,43,0.980,43.7,44.1,43.2,4.209,5.0,198,6.6,6.4,0.00031,0.00046,64.9,63.9,10,0,.,.,4.28,0.00,0.00
15min,AgWx,beryljct,423,21SEP2020:22:15:00,66.3,12.95,65.1,65.4,66.0,66.9,65.3,44,45,43,0.957,43.5,44.0,43.2,4.56,4.6,186,5.0,5.9,0.00027,0.00042,64.7,63.9,10,0,.,.,4.28,0.00,0.00
15min,AgWx,beryljct,423,21SEP2020:22:30:00,65.9,12.95,66.7,66.9,66.4,67.0,65.1,42,45,41,0.929,42.8,43.5,42.4,4.341,4.1,176,6.6,5.2,0.00023,0.00037,64.6,64.0,10,0,.,.,4.28,0.00,0.00
15min,AgWx,beryljct,423,21SEP2020:22:45:00,65.6,12.94,66.2,65.8,66.2,66.9,65.7,42,43,41,0.924,42.5,42.6,42.3,4.932,4.2,178,4.3,5.0,0.00025,0.00039,64.3,64.0,10,0,.,.,4.28,0.00,0.00
15min,AgWx,beryljct,423,21SEP2020:23:00:00,65.2,12.93,65.1,65.0,64.7,65.9,63.7,46,48,43,0.955,43.3,43.7,42.6,4.494,4.2,188,6.3,5.2,0.00021,0.00033,64.2,64.0,10,0,.,.,4.28,0.00,0.00
15min,AgWx,beryljct,423,21SEP2020:23:15:00,65.1,12.93,64.5,65.4,66.0,66.5,65.1,44,46,43,0.972,43.7,44.4,43.2,4.165,5.2,192,6.3,6.7,0.00032,0.00048,64.0,64.0,10,0,.,.,4.28,0.00,0.00
15min,AgWx,beryljct,423,21SEP2020:23:30:00,65.1,12.91,65.3,65.8,65.9,66.6,65.2,44,46,42,0.937,43.2,44.0,42.7,3.968,4.9,180,6.1,5.8,0.00030,0.00045,63.9,64.0,10,0,.,.,4.28,0.00,0.00
15min,AgWx,beryljct,423,21SEP2020:23:45:00,64.9,12.92,65.3,65.2,65.2,65.7,64.6,44,46,43,0.945,43.0,43.5,42.6,3.617,4.2,179,4.8,5.0,0.00022,0.00035,63.7,64.0,10,0,.,.,4.28,0.00,0.00
15min,AgWx,beryljct,423,22SEP2020:00:00:00,64.6,12.91,63.2,63.9,64.1,65.2,63.0,46,50,44,0.928,43.0,44.1,42.2,1.447,2.7,180,9.3,4.6,0.00003,0.00010,63.5,64.0,10,0,.,.,4.28,0.00,0.00
15min,AgWx,beryljct,423,22SEP2020:00:15:00,64.3,12.91,64.7,64.5,64.3,65.7,62.6,47,51,43,0.969,43.4,44.4,42.7,4.384,3.4,180,13,4.8,0.00011,0.00020,63.4,64.0,10,0,.,.,4.29,0.00,0.00
15min,AgWx,beryljct,423,22SEP2020:00:30:00,64.3,12.9,68.1,67.4,66.3,67.5,64.6,43,47,41,0.943,43.1,43.7,42.8,5.371,5.0,170,7.5,7.1,0.00032,0.00048,63.2,64.0,10,0,.,.,4.28,0.00,0.00
15min,AgWx,beryljct,423,22SEP2020:00:45:00,64.6,12.88,64.3,63.8,65.0,67.9,62.2,47,54,41,0.975,44.1,45.2,42.9,5.568,4.9,150,17,6.5,0.00028,0.00042,63.1,64.0,10,0,.,.,4.28,0.00,0.00
15min,AgWx,bigpiney,439,21SEP2020:00:00:00,35.7,12.63,31.9,31.8,32.5,35.1,30.9,67,73,61,0.436,22.8,24.0,20.2,7.081,5.4,232,19,7.4,0.00003,0.00005,48.3,48.3,45,0,0,0.0,0.00,0.00,0.00
15min,AgWx,bigpiney,439,21SEP2020:00:15:00,35.2,12.62,32.7,32.6,32.8,33.8,31.2,70,72,68,0.442,24.1,24.6,23.2,6.708,7.2,234,5.3,8.7,0.00005,0.00008,48.2,48.3,45,0,0,0.0,0.00,0.00,0.00
15min,AgWx,bigpiney,439,21SEP2020:00:30:00,35.1,12.6,32.6,32.1,31.8,32.5,30.7,72,75,71,0.445,24.0,24.4,23.2,5.524,4.8,258,27,7.0,-0.00001,0.00000,48.2,48.3,45,0,0,0.0,0.00,0.00,0.00
15min,AgWx,bigpiney,439,21SEP2020:00:45:00,35.0,12.61,32.9,32.6,32.7,33.6,31.4,69,72,66,0.418,23.6,24.7,22.8,0.943,3.1,242,20,5.0,-0.00005,-0.00005,48.1,48.3,45,0,0,0.0,0.00,0.00,0.00
15min,AgWx,bigpiney,439,21SEP2020:01:00:00,34.8,12.6,29.8,30.4,32.2,33.2,30.4,69,72,67,0.402,23.0,23.7,21.9,4.012,3.0,199,9.7,4.2,-0.00006,-0.00006,48.0,48.3,45,0,0,0.0,0.00,0.00,0.00
15min,AgWx,bigpiney,439,21SEP2020:01:15:00,34.3,12.59,26.7,26.4,28.3,30.3,26.2,76,81,71,0.393,21.7,23.2,20.5,4.341,4.5,199,4.3,5.7,-0.00003,-0.00002,48.0,48.3,45,0,0,0.0,0.00,0.00,0.00
15min,AgWx,bigpiney,439,21SEP2020:01:30:00,33.4,12.59,28.0,26.9,26.3,26.9,25.4,81,87,80,0.406,21.3,23.0,20.5,6.62,4.6,211,5.7,6.8,-0.00004,-0.00004,47.9,48.3,45,0,0,0.0,0.00,0.00,0.00
15min,AgWx,bigpiney,439,21SEP2020:01:45:00,32.4,12.57,27.6,27.0,26.7,28.2,25.3,78,81,75,0.379,20.8,22.4,19.8,2.28,3.9,269,32,6.9,-0.00005,-0.00005,47.8,48.3,45,0,0,0.0,0.00,0.00,0.00
15min,AgWx,bigpiney,439,21SEP2020:02:00:00,31.8,12.57,31.6,31.6,30.4,32.4,27.0,70,76,66,0.398,21.6,22.5,20.5,0,1.6,281,16,2.6,-0.00012,-0.00015,47.8,48.3,45,0,0,0.0,0.00,0.00,0.00
15min,AgWx,bigpiney,439,21SEP2020:02:15:00,31.4,12.57,30.5,30.6,30.8,31.6,29.8,68,71,66,0.393,21.5,21.8,21.2,1.008,1.0,268,34,2.6,-0.00016,-0.00022,47.7,48.3,45,0,0,0.0,0.00,0.00,0.00
15min,AgWx,bigpiney,439,21SEP2020:02:30:00,31.3,12.56,33.0,32.1,31.2,32.2,30.5,68,69,66,0.405,21.7,22.1,21.3,1.074,1.4,250,13,2.4,-0.00013,-0.00017,47.6,48.3,45,0,0,0.0,0.00,0.00,0.00
15min,AgWx,bigpiney,439,21SEP2020:02:45:00,31.5,12.55,33.4,33.1,32.8,33.1,32.2,65,66,64,0.410,22.3,22.5,21.9,0.921,0.5,242,6.7,1.2,-0.00022,-0.00032,47.6,48.3,45,0,0,0.0,0.00,0.00,0.00
15min,AgWx,bigpiney,439,21SEP2020:03:00:00,31.6,12.54,33.6,33.3,32.9,33.3,32.4,64,65,64,0.410,22.3,22.5,21.9,0,0.9,271,15,2.0,-0.00018,-0.00025,47.5,48.3,45,0,0,0.0,0.00,0.00,0.00
15min,AgWx,bigpiney,439,21SEP2020:03:15:00,31.6,12.53,32.1,32.6,32.5,33.4,31.7,65,66,63,0.408,22.1,22.6,21.3,4.538,2.5,212,13,4.7,-0.00007,-0.00008,47.4,48.3,45,0,0,0.0,0.00,0.00,0.00
15min,AgWx,bigpiney,439,21SEP2020:03:30:00,31.0,12.52,27.5,28.2,31.5,33.0,28.2,66,69,64,0.360,21.3,22.4,19.3,5.064,5.0,217,4.8,6.6,0.00002,0.00005,47.4,48.3,45,0,0,0.0,0.00,0.00,0.00
15min,AgWx,bigpiney,439,21SEP2020:03:45:00,30.4,12.52,29.3,30.5,28.3,30.5,25.9,71,77,68,0.397,20.1,22.1,18.4,4.034,4.7,223,8.3,5.5,-0.00001,0.00001,47.3,48.2,45,0,0,0.0,0.00,0.00,0.00
15min,AgWx,bigpiney,439,21SEP2020:04:00:00,29.8,12.5,28.4,27.6,28.1,30.4,26.6,70,74,67,0.376,19.7,21.2,18.0,0,2.8,223,15,4.5,-0.00006,-0.00006,47.2,48.2,45,0,0,0.0,0.00,0.00,0.00
15min,AgWx,bigpiney,439,21SEP2020:04:15:00,29.2,12.51,26.1,25.9,26.8,28.3,25.8,73,75,70,0.356,19.4,20.6,18.4,0.855,0.2,228,8.8,1.0,-0.00021,-0.00033,47.1,48.2,45,0,0,0.0,0.00,0.00,0.00
15min,AgWx,bigpiney,439,21SEP2020:04:30:00,28.6,12.5,25.5,24.7,24.5,26.2,23.6,76,78,73,0.353,18.1,19.4,17.1,1.469,3.4,337,17,5.5,-0.00005,-0.00005,47.0,48.2,45,0,0,0.0,0.00,0.00,0.00
15min,AgWx,bigpiney,439,21SEP2020:04:45:00,28.0,12.49,26.8,26.4,25.5,26.4,24.6,76,78,75,0.363,19.0,19.5,17.9,4.45,3.9,329,11,4.7,-0.00004,-0.00004,47.0,48.2,45,0,0,0.0,0.00,0.00,0.00
15min,AgWx,bigpiney,439,21SEP2020:05:00:00,27.5,12.49,23.6,26.2,25.0,26.4,22.7,76,79,70,0.364,18.6,20.2,14.9,2.828,1.7,265,38,4.4,-0.00011,-0.00014,46.9,48.2,45,0,0,0.0,0.00,0.00,0.00
15min,AgWx,bigpiney,439,21SEP2020:05:15:00,27.0,12.48,23.9,23.8,25.5,26.9,23.8,78,81,74,0.352,19.6,21.1,18.2,4.779,3.5,205,5.5,5.1,-0.00006,-0.00006,46.8,48.1,45,0,0,0.0,0.00,0.00,0.00
15min,AgWx,bigpiney,439,21SEP2020:05:30:00,26.3,12.47,26.4,25.0,24.8,25.6,23.8,81,84,79,0.366,19.9,21.0,18.8,2.74,3.7,212,2.9,5.0,-0.00006,-0.00006,46.8,48.2,45,0,0,0.0,0.00,0.00,0.00
15min,AgWx,bigpiney,439,21SEP2020:05:45:00,25.6,12.46,29.1,29.1,28.0,29.1,25.1,76,81,71,0.403,21.3,22.1,19.8,1.776,1.8,242,29,2.8,-0.00012,-0.00015,46.7,48.1,45,0,0,0.0,0.00,0.00,0.00
15min,AgWx,bigpiney,439,21SEP2020:06:00:00,25.3,12.45,29.5,28.8,28.8,29.5,28.2,75,76,73,0.409,21.8,22.3,21.1,2.236,1.5,285,9.9,2.6,-0.00013,-0.00017,46.6,48.1,45,0,0,0.0,0.00,0.00,0.00
15min,AgWx,bigpiney,439,21SEP2020:06:15:00,25.3,12.44,28.9,27.7,28.3,29.1,27.1,75,77,73,0.393,21.4,22.3,20.2,2.784,2.7,278,6.5,3.6,-0.00008,-0.00009,46.5,48.1,45,0,0,0.0,0.00,0.00,0.00
15min,AgWx,bigpiney,439,21SEP2020:06:30:00,25.1,12.43,27.7,26.8,27.1,29.7,23.8,77,82,71,0.405,20.8,22.9,16.0,1.841,2.1,270,18,3.5,-0.00010,-0.00013,46.4,48.0,45,0,0,0.0,0.00,0.00,0.00
15min,AgWx,bigpiney,439,21SEP2020:06:45:00,24.3,12.43,19.0,23.9,25.4,27.3,23.5,79,82,74,0.330,19.8,22.1,16.4,5.13,2.2,264,24,5.1,-0.00010,-0.00012,46.3,48.1,45,0,0,0.0,0.00,0.00,0.00
15min,AgWx,bigpiney,439,21SEP2020:07:00:00,23.4,12.42,21.7,21.2,22.1,24.2,21.0,79,83,73,0.310,16.5,19.8,14.5,1.885,4.0,237,11,5.8,-0.00004,-0.00004,46.3,48.0,45,1,0,0.0,0.00,0.00,0.00